Showing default

OAO 2, 3597

Orbit data source: Space-Track

OAO 2, 3597 is a payload satellite owned by GSFC (US) in LEO that was launched on Sat, 07 Dec 1968 UTC via an ATLAS SLV-3C CENTAUR launch vehicle from the Air Force Eastern Test Range (AFETR). Payload-class satellites include a variety of spacecraft equipped with specific instruments for various scientific and technological missions. These include communications satellites like Starlink; space stations such as the ISS; scientific satellites like the Hubble; Earth observation satellites from companies like Planet Labs, Umbra, and HawkEye 360; GPS; miniature CubeSats for education and research; and military/defense satellites.

Loading next visibility...
Identifier
3597, 1968-110A
Orbit
LEO
Country
Flag of USUS
Related business
Manufacturer
Grummann
Mission
Civil Astronomy
Bus & Motor
OAO, Unknown motor
Mass
2,018 kg wet, 2,018 kg dry
Launch date (UTC)
1968-12-07 (57 years ago)
Launch vehicle
ATLAS SLV-3C CENTAUR
Launch site
Air Force Eastern Test Range (AFETR)
Object type
Payload
Rocket body
Debris
Shape & HBR
Oct Cyl + 2 Pan, 3.2 m
Radar Cross Section
9.115 m², Large (>1 m²)

Expand to show TLE details & history
Last TLE update: 15 hours ago

TLE from 15 hours ago
0 OAO 2
1 03597U 68110A   25260.13324127  .00000216  00000-0  63549-4 0  9998
2 03597  34.9924 154.1263 0006286 248.0333 111.9690 14.47162321993979
Epoch: 2025-09-17T03:11Z
TLE epoch observation values (Epoch: 2025-09-17T03:11:52.045Z)
Latitude
-0.00001°
Longitude
109.84586°
Altitude
735.549 km
Speed
7.488 km/s
True Right ascension
10h 16m 30s
True Declination
0° 00' 00"
Sunlit
Object was in daylight at epoch
Visualization orbit readout
Latitude
Unknown
Longitude
Unknown
Altitude
Unknown
Speed
Unknown
Apparent Right ascension
Unknown
Apparent Declination
Unknown
Sunlit
N/A
Visualization observer readout
Local Sidereal Time
10:45:35
Azimuth
Unknown
Elevation
Unknown
Doppler factor
Unknown
Orbital elements
Apogee altitude
742.548 km
Perigee altitude
733.601 km
Semi-major axis
7,116.212 km
Eccentricity
0.00063
Inclination
34.9924°
RAAN
154.1263°
Arg. of periapsis
248.0333°
True anomaly
112.03578°
Mean anomaly
111.969°
Eccentric anomaly
112.00239°
Mean motion
3.61551 °/min
Orbital period
99.57 mins
BSTAR
0.000063549
Loading maneuver chart data...
Computing Atmospheric mass density...
Loading historical data...
Loading historical data...
Loading historical data...
Loading historical data...
Loading historical data...
Loading historical data...
Loading historical data...
Other satellites on launch #110 in the year 1968 (1968-12-07 UTC)

Documentation

Showing up to 5 results
|